This is the latest recevied weather packets stored in our database for station/object K4AXV-13. If no packets are shown the sender has not sent any weather packets the latest 10 day(s).
| Time | Temp. | Humidity | Pressure | Rain* | Wind** | Luminosity | Snow |
|---|---|---|---|---|---|---|---|
| 1778128057 | 22.78° C | - | - | 0 mm | 1.34 m/s, 281° | - | - |
| 1778126856 | 22.78° C | - | - | 0 mm | 1.34 m/s, 297° | - | - |
| 1778126745 | 22.22° C | - | - | 0 mm | 0.45 m/s, 305° | - | - |
| 1778126557 | 22.22° C | - | - | 0 mm | 0.45 m/s, 305° | - | - |
| 1778126255 | 22.78° C | - | - | 0 mm | 1.34 m/s, 219° | - | - |
| 1778125956 | 22.78° C | - | - | 0 mm | 2.24 m/s, 18° | - | - |
| 1778125830 | 22.78° C | - | - | 0 mm | 1.79 m/s, 17° | - | - |
| 1778125652 | 22.78° C | - | - | 0 mm | 1.79 m/s, 17° | - | - |
| 1778125353 | 22.78° C | - | - | 0 mm | 0.89 m/s, 253° | - | - |
| 1778124753 | 22.22° C | - | - | 0 mm | 2.24 m/s, 236° | - | - |
| 1778124451 | 22.78° C | - | - | 0 mm | 1.79 m/s, 0° | - | - |
| 1778123850 | 22.22° C | - | - | 0 mm | 1.79 m/s, 260° | - | - |
| 1778123551 | 22.22° C | - | - | 0 mm | 1.34 m/s, 322° | - | - |
| 1778123248 | 22.22° C | - | - | 0 mm | 1.34 m/s, 238° | - | - |
| 1778122949 | 22.22° C | - | - | 0 mm | 0 m/s | - | - |
| 1778122769 | 22.22° C | - | - | 0 mm | 1.34 m/s, 238° | - | - |
| 1778122648 | 22.22° C | - | - | 0 mm | 1.34 m/s, 238° | - | - |
| 1778122349 | 22.22° C | - | - | 0 mm | 0 m/s | - | - |
| 1778121746 | 22.22° C | - | - | 0 mm | 0 m/s | - | - |
| 1778121522 | 22.22° C | - | - | 0 mm | 1.34 m/s, 325° | - | - |
| 1778121475 | 22.22° C | - | - | 0 mm | 1.34 m/s, 264° | - | - |
| 1778121473 | 22.22° C | - | - | 0 mm | 1.34 m/s, 325° | - | - |
| 1778121443 | 22.22° C | - | - | 0 mm | 1.34 m/s, 264° | - | - |
| 1778121144 | 22.22° C | - | - | 0 mm | 1.34 m/s, 325° | - | - |
| 1778120842 | 22.22° C | - | - | 0 mm | 0.45 m/s, 259° | - | - |
* Rain latest hour (hover to see other rain measurements)
** Current wind speed in m/s (hover to see current wind gust speed)